CFG3655 LIMJ-EDDL

Flight info

Callsign CFG3655
Flight time N/A
Altitude 32000
Route LAGE1H LAGEN DCT NEDED DCT TOP DCT AOSTA DCT ORSUD DCT MOLUS DCT GILIR DCT PENDU DCT IXILU DCT EPL DCT ROUSY DCT DIK N853 ARCKY T853 NVO T857 BIKMU BIKMU1A
Aircraft A321/M-SDE3FGHIRWY/LB1

Departure

Time 2026-04-20 14:24
Airport Genoa Cristoforo Colombo Airport (LIMJ)

Arrival

Time N/A
Airport Düsseldorf Airport (EDDL)
Time Latitude Longitude Altitude Speed Heading
2026-04-20 13:41 44.41489 8.84933 20 ft 0 kts 105°
2026-04-20 14:09 44.41495 8.84903 22 ft 4 kts 105°
2026-04-20 14:10 44.41502 8.84868 24 ft 2 kts 105°
2026-04-20 14:10 44.41510 8.84838 23 ft 4 kts 135°
2026-04-20 14:10 44.41531 8.84825 21 ft 4 kts 190°
2026-04-20 14:10 44.41552 8.84839 21 ft 2 kts 231°
2026-04-20 14:11 44.41554 8.84842 21 ft 0 kts 232°
2026-04-20 14:14 44.41549 8.84832 22 ft 5 kts 232°
2026-04-20 14:15 44.41522 8.84784 20 ft 6 kts 232°
2026-04-20 14:15 44.41500 8.84743 20 ft 5 kts 232°
2026-04-20 14:15 44.41483 8.84712 20 ft 3 kts 232°
2026-04-20 14:15 44.41471 8.84691 20 ft 2 kts 232°
2026-04-20 14:16 44.41460 8.84671 20 ft 3 kts 232°
2026-04-20 14:16 44.41444 8.84640 20 ft 5 kts 232°
2026-04-20 14:16 44.41423 8.84603 20 ft 4 kts 232°
2026-04-20 14:16 44.41408 8.84575 20 ft 3 kts 232°
2026-04-20 14:17 44.41375 8.84515 20 ft 11 kts 232°
2026-04-20 14:17 44.41331 8.84436 20 ft 10 kts 232°
2026-04-20 14:17 44.41316 8.84357 20 ft 8 kts 281°
2026-04-20 14:17 44.41328 8.84285 22 ft 7 kts 285°
2026-04-20 14:18 44.41344 8.84206 20 ft 13 kts 286°
2026-04-20 14:18 44.41372 8.84070 22 ft 14 kts 285°
2026-04-20 14:18 44.41395 8.83945 20 ft 13 kts 284°
2026-04-20 14:18 44.41417 8.83833 21 ft 11 kts 285°
2026-04-20 14:19 44.41436 8.83737 20 ft 10 kts 285°
2026-04-20 14:19 44.41453 8.83653 20 ft 8 kts 285°
2026-04-20 14:19 44.41466 8.83581 20 ft 7 kts 285°
2026-04-20 14:19 44.41484 8.83501 20 ft 13 kts 285°
2026-04-20 14:20 44.41509 8.83363 20 ft 14 kts 284°
2026-04-20 14:20 44.41534 8.83240 21 ft 12 kts 285°
2026-04-20 14:20 44.41555 8.83130 20 ft 11 kts 286°
2026-04-20 14:20 44.41575 8.83030 20 ft 10 kts 285°
2026-04-20 14:21 44.41595 8.82925 20 ft 12 kts 285°
2026-04-20 14:21 44.41615 8.82822 20 ft 10 kts 285°
2026-04-20 14:21 44.41635 8.82720 21 ft 14 kts 285°
2026-04-20 14:21 44.41660 8.82591 22 ft 13 kts 284°
2026-04-20 14:22 44.41626 8.82511 19 ft 10 kts 207°
2026-04-20 14:22 44.41579 8.82491 17 ft 11 kts 195°
2026-04-20 14:22 44.41519 8.82522 17 ft 9 kts 117°
2026-04-20 14:22 44.41513 8.82560 20 ft 0 kts 104°
2026-04-20 14:23 44.41506 8.82598 19 ft 21 kts 104°
2026-04-20 14:23 44.41404 8.83119 21 ft 87 kts 105°
2026-04-20 14:23 44.41195 8.84182 25 ft 137 kts 105°
2026-04-20 14:24 44.40902 8.85673 112 ft 180 kts 105°
2026-04-20 14:24 44.40593 8.87273 1173 ft 167 kts 109°
2026-04-20 14:24 44.39952 8.88682 1859 ft 183 kts 147°
2026-04-20 14:24 44.38770 8.89399 2388 ft 189 kts 162°
2026-04-20 14:25 44.37505 8.89880 2954 ft 190 kts 165°
2026-04-20 14:25 44.36204 8.90349 3583 ft 191 kts 164°
2026-04-20 14:25 44.34914 8.90840 4147 ft 194 kts 163°
2026-04-20 14:25 44.33598 8.91379 4682 ft 199 kts 163°
2026-04-20 14:26 44.32260 8.91968 5192 ft 205 kts 162°
2026-04-20 14:26 44.30848 8.92630 5428 ft 228 kts 161°
2026-04-20 14:26 44.29302 8.93348 5902 ft 233 kts 165°
2026-04-20 14:26 44.27762 8.93440 6833 ft 219 kts 199°
2026-04-20 14:27 44.26499 8.92304 7351 ft 219 kts 228°
2026-04-20 14:27 44.25341 8.90962 7987 ft 220 kts 217°
2026-04-20 14:27 44.23984 8.89768 8302 ft 234 kts 213°
2026-04-20 14:27 44.22652 8.88649 9209 ft 224 kts 214°
2026-04-20 14:28 44.21214 8.87446 9226 ft 255 kts 214°
2026-04-20 14:28 44.19629 8.86075 9430 ft 278 kts 216°
2026-04-20 14:28 44.17976 8.84570 9950 ft 287 kts 217°
2026-04-20 14:28 44.16328 8.83042 10584 ft 290 kts 217°
2026-04-20 14:29 44.14685 8.81364 11244 ft 290 kts 229°
2026-04-20 14:29 44.13700 8.79021 11924 ft 284 kts 257°
2026-04-20 14:29 44.13574 8.76288 12558 ft 284 kts 274°
2026-04-20 14:29 44.13671 8.73547 13273 ft 286 kts 274°
2026-04-20 14:30 44.13782 8.70761 13939 ft 288 kts 276°
2026-04-20 14:30 44.14292 8.68095 14534 ft 290 kts 296°
2026-04-20 14:30 44.15478 8.65865 15140 ft 294 kts 316°
2026-04-20 14:30 44.17230 8.64324 15750 ft 301 kts 332°
2026-04-20 14:31 44.19152 8.63093 16367 ft 303 kts 331°
2026-04-20 14:31 44.21049 8.61862 16953 ft 306 kts 330°
2026-04-20 14:31 44.23005 8.60584 17583 ft 308 kts 330°
2026-04-20 14:31 44.24933 8.59322 18193 ft 310 kts 330°
2026-04-20 14:32 44.26892 8.58038 18727 ft 312 kts 330°
2026-04-20 14:32 44.28885 8.56733 19280 ft 314 kts 330°
2026-04-20 14:32 44.30836 8.55455 19814 ft 316 kts 330°
2026-04-20 14:32 44.32803 8.54161 20344 ft 317 kts 330°
2026-04-20 14:33 44.34800 8.52847 20865 ft 319 kts 330°
2026-04-20 14:33 44.36845 8.51503 21389 ft 322 kts 330°
2026-04-20 14:33 44.38821 8.50116 21890 ft 322 kts 324°
2026-04-20 14:33 44.40668 8.48342 22434 ft 320 kts 317°
2026-04-20 14:34 44.42390 8.46292 22931 ft 322 kts 315°
2026-04-20 14:34 44.44069 8.44286 23412 ft 324 kts 316°
2026-04-20 14:34 44.45797 8.42229 23878 ft 326 kts 316°
2026-04-20 14:34 44.47538 8.40162 24317 ft 327 kts 316°
2026-04-20 14:35 44.49227 8.38159 24856 ft 324 kts 316°
2026-04-20 14:35 44.50942 8.36129 25385 ft 322 kts 316°
2026-04-20 14:35 44.52636 8.34118 25900 ft 320 kts 316°
2026-04-20 14:35 44.54291 8.32151 26406 ft 318 kts 316°
2026-04-20 14:36 44.55977 8.30142 26915 ft 316 kts 315°
2026-04-20 14:36 44.57647 8.28147 27379 ft 315 kts 315°
2026-04-20 14:36 44.59315 8.26151 27864 ft 314 kts 315°
2026-04-20 14:36 44.60969 8.24172 28353 ft 312 kts 315°
2026-04-20 14:37 44.62603 8.22217 28825 ft 311 kts 315°
2026-04-20 14:37 44.64246 8.20249 29267 ft 310 kts 315°
2026-04-20 14:37 44.65892 8.18273 29610 ft 312 kts 315°
2026-04-20 14:37 44.67546 8.16286 29912 ft 315 kts 315°
2026-04-20 14:38 44.69204 8.14296 30188 ft 316 kts 315°
2026-04-20 14:38 44.70883 8.12278 30487 ft 318 kts 315°
2026-04-20 14:38 44.72572 8.10247 30792 ft 319 kts 315°
2026-04-20 14:38 44.74262 8.08216 31099 ft 320 kts 315°
2026-04-20 14:39 44.75943 8.06195 31347 ft 321 kts 315°
2026-04-20 14:39 44.77667 8.04122 31589 ft 323 kts 315°
2026-04-20 14:39 44.79384 8.02059 31840 ft 326 kts 315°
2026-04-20 14:39 44.81104 7.99992 31916 ft 327 kts 315°
2026-04-20 14:40 44.84509 7.95889 31925 ft 330 kts 315°
2026-04-20 14:40 44.88136 7.91509 31926 ft 348 kts 315°
2026-04-20 14:41 44.91946 7.87083 31926 ft 368 kts 321°
2026-04-20 14:41 44.94189 7.85227 31933 ft 381 kts 329°
2026-04-20 14:41 44.96647 7.83753 31929 ft 392 kts 332°
2026-04-20 14:42 45.01797 7.80774 31923 ft 408 kts 332°
2026-04-20 14:42 45.07154 7.77634 31923 ft 423 kts 332°
2026-04-20 14:43 45.12616 7.74427 31943 ft 427 kts 332°
2026-04-20 14:43 45.18110 7.71212 31921 ft 426 kts 332°
2026-04-20 14:44 45.23577 7.68000 31919 ft 427 kts 332°
2026-04-20 14:44 45.29071 7.64759 31922 ft 427 kts 332°
2026-04-20 14:45 45.34571 7.61506 31950 ft 427 kts 332°
2026-04-20 14:45 45.40018 7.58276 31955 ft 426 kts 332°
2026-04-20 14:46 45.45496 7.55016 31958 ft 426 kts 332°
2026-04-20 14:46 45.50962 7.51762 31960 ft 425 kts 332°
2026-04-20 14:47 45.56405 7.48526 31983 ft 424 kts 331°
2026-04-20 14:48 45.64557 7.43648 31988 ft 423 kts 331°
2026-04-20 14:48 45.69998 7.40385 31984 ft 424 kts 331°
2026-04-20 14:49 45.75366 7.37156 31934 ft 423 kts 332°
2026-04-20 14:49 45.80616 7.33605 31921 ft 415 kts 322°
2026-04-20 14:50 45.85307 7.28851 31932 ft 412 kts 320°
2026-04-20 14:50 45.89977 7.24088 31945 ft 411 kts 320°
2026-04-20 14:51 45.94649 7.19319 31993 ft 411 kts 320°
2026-04-20 14:51 45.99223 7.14653 32010 ft 411 kts 320°
2026-04-20 14:52 46.03858 7.09908 31996 ft 410 kts 320°
2026-04-20 14:52 46.08499 7.05134 31988 ft 410 kts 319°
2026-04-20 14:53 46.13147 7.00345 32000 ft 411 kts 319°
2026-04-20 14:53 46.17786 6.95568 32026 ft 411 kts 319°
2026-04-20 14:54 46.22401 6.90795 32011 ft 409 kts 319°
2026-04-20 14:54 46.27046 6.85992 32017 ft 408 kts 319°
2026-04-20 14:55 46.31665 6.81207 32007 ft 408 kts 319°
2026-04-20 14:55 46.36280 6.76406 32010 ft 409 kts 319°
2026-04-20 14:56 46.40902 6.71590 32039 ft 409 kts 319°
2026-04-20 14:56 46.45626 6.67063 32035 ft 415 kts 327°
2026-04-20 14:57 46.50844 6.63396 32037 ft 416 kts 328°
2026-04-20 14:57 46.56079 6.59721 32034 ft 416 kts 328°
2026-04-20 14:58 46.61287 6.56053 32029 ft 416 kts 328°
2026-04-20 14:58 46.66499 6.52372 32040 ft 416 kts 328°
2026-04-20 14:59 46.71704 6.48683 32021 ft 416 kts 328°
2026-04-20 14:59 46.76892 6.44985 32022 ft 417 kts 328°
2026-04-20 15:00 46.82130 6.41253 32054 ft 418 kts 328°
2026-04-20 15:00 46.87253 6.37601 32051 ft 418 kts 328°
2026-04-20 15:01 46.92485 6.33857 32053 ft 418 kts 328°
2026-04-20 15:01 46.97691 6.30131 32045 ft 418 kts 328°
2026-04-20 15:02 47.02918 6.26378 32054 ft 418 kts 328°
2026-04-20 15:02 47.08154 6.22608 32056 ft 418 kts 328°
2026-04-20 15:03 47.13347 6.18871 32054 ft 418 kts 328°
2026-04-20 15:03 47.18591 6.15090 32049 ft 419 kts 328°
2026-04-20 15:04 47.23808 6.11318 32079 ft 419 kts 328°
2026-04-20 15:04 47.29038 6.07517 32071 ft 419 kts 328°
2026-04-20 15:05 47.33460 6.04607 32067 ft 425 kts 336°
2026-04-20 15:05 47.37348 6.03450 32063 ft 437 kts 348°
2026-04-20 15:05 47.39381 6.03352 32062 ft 442 kts 353°
2026-04-20 15:06 47.45533 6.03502 32073 ft 443 kts 353°
2026-04-20 15:06 47.51728 6.03637 32068 ft 444 kts 353°
2026-04-20 15:07 47.57902 6.03776 32070 ft 444 kts 353°
2026-04-20 15:07 47.64101 6.03911 32065 ft 444 kts 353°
2026-04-20 15:08 47.70247 6.04050 32089 ft 444 kts 353°
2026-04-20 15:08 47.76434 6.04202 32081 ft 444 kts 354°
2026-04-20 15:09 47.82568 6.04398 32085 ft 444 kts 354°
2026-04-20 15:09 47.88797 6.04610 32101 ft 444 kts 354°
2026-04-20 15:10 47.94969 6.04808 32098 ft 444 kts 354°
2026-04-20 15:10 48.01112 6.04993 32101 ft 444 kts 354°
2026-04-20 15:11 48.07298 6.05186 32132 ft 443 kts 354°
2026-04-20 15:11 48.13450 6.05374 32125 ft 443 kts 355°
2026-04-20 15:12 48.19605 6.05569 32123 ft 443 kts 355°
2026-04-20 15:12 48.25777 6.05765 32130 ft 443 kts 355°
2026-04-20 15:13 48.31934 6.05960 32146 ft 443 kts 355°
2026-04-20 15:13 48.38096 6.06202 32140 ft 443 kts 355°
2026-04-20 15:14 48.44280 6.06508 32128 ft 443 kts 355°
2026-04-20 15:14 48.50401 6.06818 32142 ft 443 kts 355°
2026-04-20 15:15 48.56368 6.07101 32134 ft 442 kts 355°
2026-04-20 15:15 48.62539 6.07383 32109 ft 442 kts 355°
2026-04-20 15:16 48.68701 6.07678 32107 ft 443 kts 355°
2026-04-20 15:16 48.74860 6.07968 32105 ft 443 kts 355°
2026-04-20 15:17 48.81011 6.08266 32105 ft 443 kts 355°
2026-04-20 15:17 48.87219 6.08561 32127 ft 443 kts 355°
2026-04-20 15:18 48.93357 6.08847 32168 ft 443 kts 355°
2026-04-20 15:18 48.99511 6.09148 32160 ft 442 kts 354°
2026-04-20 15:19 49.05667 6.09448 32152 ft 442 kts 354°
2026-04-20 15:19 49.11835 6.09742 32144 ft 442 kts 355°
2026-04-20 15:20 49.17997 6.10045 32154 ft 442 kts 354°
2026-04-20 15:20 49.24137 6.10343 32133 ft 441 kts 354°
2026-04-20 15:21 49.30248 6.10642 32135 ft 441 kts 354°
2026-04-20 15:21 49.36413 6.10948 32172 ft 440 kts 354°
2026-04-20 15:22 49.42520 6.11251 32158 ft 441 kts 354°
2026-04-20 15:22 49.48636 6.11536 32141 ft 441 kts 354°
2026-04-20 15:23 49.54803 6.11803 32137 ft 441 kts 353°
2026-04-20 15:23 49.60960 6.12027 32167 ft 440 kts 353°
2026-04-20 15:24 49.67033 6.12239 32158 ft 441 kts 353°
2026-04-20 15:24 49.73195 6.12475 32151 ft 441 kts 353°
2026-04-20 15:25 49.79337 6.12726 32144 ft 441 kts 353°
2026-04-20 15:25 49.85412 6.12967 32163 ft 440 kts 353°
2026-04-20 15:26 49.91582 6.13096 32008 ft 439 kts 352°
2026-04-20 15:26 49.94642 6.13095 31122 ft 442 kts 351°
2026-04-20 15:26 49.97672 6.13077 30237 ft 443 kts 351°
2026-04-20 15:26 50.00750 6.13067 29201 ft 443 kts 352°
2026-04-20 15:27 50.03895 6.13074 28189 ft 444 kts 353°
2026-04-20 15:27 50.06945 6.13092 27206 ft 445 kts 353°
2026-04-20 15:27 50.10032 6.13112 26118 ft 448 kts 355°
2026-04-20 15:27 50.13182 6.13131 24984 ft 452 kts 355°
2026-04-20 15:28 50.16357 6.13150 23979 ft 453 kts 356°
2026-04-20 15:28 50.19508 6.13172 23004 ft 452 kts 357°
2026-04-20 15:28 50.22591 6.13196 22260 ft 446 kts 357°
2026-04-20 15:28 50.25673 6.13279 21507 ft 440 kts
2026-04-20 15:29 50.28677 6.13984 20773 ft 438 kts 11°
2026-04-20 15:29 50.31587 6.15465 20028 ft 436 kts 21°
2026-04-20 15:29 50.34265 6.17654 19277 ft 434 kts 31°
2026-04-20 15:29 50.36781 6.20261 18562 ft 431 kts 32°
2026-04-20 15:30 50.39241 6.22805 17808 ft 426 kts 31°
2026-04-20 15:30 50.41716 6.25353 17139 ft 420 kts 31°
2026-04-20 15:30 50.43999 6.27700 16527 ft 414 kts 31°
2026-04-20 15:30 50.46471 6.30246 15870 ft 408 kts 31°
2026-04-20 15:31 50.48823 6.32672 15256 ft 403 kts 31°
2026-04-20 15:31 50.51179 6.35034 14651 ft 397 kts 30°
2026-04-20 15:31 50.53540 6.37254 14097 ft 391 kts 28°